This demonstration page uses our WeatherBlox Daily Observations layout. Learn more.

Left ArrowRight Arrow

Hourly Observations for May 3, 2018

Temp ( °F °C ) Dew Point ( °F °C ) Humidity (%) Winds ( mph kmh ) Pressure ( in mb ) Visibility ( mi km ) Precip ( " mm )
12:53 am 00:53 Clear 56 13.3 46 7.8 70 70 Calm 30.02 1017 10 16 0.00 0.00
1:53 am 01:53 Clear 54 12.2 46 7.8 75 75 WNW 7 11 30.04 1017 10 16 0.00 0.00
2:53 am 02:53 Clear 54 12.2 45 7.2 72 72 Calm 30.06 1018 10 16 0.00 0.00
3:53 am 03:53 Clear 53 11.7 45 7.2 74 74 Calm 30.07 1018 10 16 0.00 0.00
4:53 am 04:53 Clear 49 9.4 46 7.8 90 90 Calm 30.09 1019 10 16 0.00 0.00
5:53 am 05:53 Clear 51 10.6 45 7.2 80 80 Calm 30.09 1019 10 16 0.00 0.00
6:53 am 06:53 Sunny 53 11.7 45 7.2 74 74 NW 5 7 30.13 1020 10 16 0.00 0.00
7:53 am 07:53 Sunny 57 13.9 48 8.9 72 72 Calm 30.15 1021 10 16 0.00 0.00
8:53 am 08:53 Sunny 61 16.1 48 8.9 63 63 Calm 30.16 1021 10 16 0.00 0.00
9:53 am 09:53 Sunny 66 18.9 50 10 56 56 SSE 3 6 30.16 1022 10 16 0.00 0.00
10:53 am 10:53 Sunny 69 20.6 48 8.9 47 47 Calm 30.17 1022 10 16 0.00 0.00
11:53 am 11:53 Sunny 73 22.8 48 8.9 41 41 VRB 3 6 30.16 1021 10 16 0.00 0.00
12:53 pm 12:53 Sunny 76 24.4 50 10 40 40 ESE 6 9 30.15 1021 10 16 0.00 0.00
1:53 pm 13:53 Sunny 76 24.4 50 10 40 40 Calm 30.14 1021 10 16 0.00 0.00
2:53 pm 14:53 Sunny 79 26.1 51 10.6 38 38 S 8 13 30.13 1020 10 16 0.00 0.00
3:53 pm 15:53 Sunny 80 26.7 48 8.9 33 33 SSE 7 11 30.10 1019 10 16 0.00 0.00
4:53 pm 16:53 Sunny 80 26.7 49 9.4 34 34 S 7 11 30.09 1019 10 16 0.00 0.00
5:53 pm 17:53 Sunny 81 27.2 47 8.3 30 30 S 8 13 30.08 1019 10 16 0.00 0.00
6:53 pm 18:53 Sunny 79 26.1 49 9.4 35 35 S 8 13 30.07 1018 10 16 0.00 0.00
7:53 pm 19:53 Sunny 75 23.9 52 11.1 45 45 SSE 6 9 30.08 1019 10 16 0.00 0.00
8:53 pm 20:53 Clear 73 22.8 54 12.2 51 51 Calm 30.10 1019 10 16 0.00 0.00
9:53 pm 21:53 Clear 68 20 55 12.8 63 63 Calm 30.12 1020 10 16 0.00 0.00
10:53 pm 22:53 Clear 64 17.8 55 12.8 73 73 Calm 30.13 1020 10 16 0.00 0.00
11:53 pm 23:53 Clear 63 17.2 55 12.8 76 76 Calm 30.14 1021 10 16 0.00 0.00

Powered by AerisWeather